Location: Noordwijk
(52.2400°N, 4.4500°E)
Time: 19:31:07
(UTC+00:00)

FO-29 - Pass Details

Date: 09 December 2022
Orbit: 799 x 1322 km, 98.5° (Epoch: 31 January)

Event Time Altitude Azimuth Distance (km) Brightness Sun altitude
Rises 06:05:55 0° 14° (NNE) 3,874 12.6 -13.3°
Reaches altitude 10° 06:08:36 10° 14° (NNE) 2,838 11.9 -12.9°
Maximum altitude 06:14:55 80° 289° (WNW) 957 9.4 -12.0°
Drops below altitude 10° 06:20:29 10° 203° (SSW) 2,507 11.7 -11.2°
Sets 06:22:43 0° 202° (SSW) 3,394 12.4 -10.9°
